• In Deutschland
  • Länderverzeichnis
  • Für 7 Tage
  • Wassertemperatur
  • Satellitenkarten
  • Wetterkarte
  • Widgets
  • user-avatar
    Anmelden

    Stündliche Wetter Bad Berka

    Heute, 19 Oktober, Donnerstag

    Zeit Temperatur Niederschläge Wind Luftdruck Luftfeuchtigkeit
    00:00 +11°C° 0 mm 1 m/S 729 mmHg 81%
    01:00 +10°C° 0 mm 2 m/S 730 mmHg 82%
    02:00 +11°C° 0 mm 1 m/S 729 mmHg 82%
    03:00 +11°C° 0 mm 1 m/S 729 mmHg 82%
    04:00 +10°C° 0 mm 1 m/S 729 mmHg 82%
    05:00 +10°C° 0 mm 1 m/S 729 mmHg 82%
    06:00 +10°C° 0 mm 1 m/S 729 mmHg 81%
    07:00 +10°C° 0 mm 1 m/S 730 mmHg 80%
    08:00 +12°C° 0 mm 2 m/S 730 mmHg 73%
    09:00 +14°C° 0 mm 2 m/S 730 mmHg 67%
    10:00 +16°C° 0 mm 2 m/S 730 mmHg 60%
    11:00 +17°C° 0 mm 2 m/S 730 mmHg 57%
    12:00 +19°C° 0 mm 3 m/S 730 mmHg 53%
    13:00 +20°C° 0 mm 3 m/S 730 mmHg 49%
    14:00 +19°C° 0 mm 3 m/S 730 mmHg 53%
    15:00 +19°C° 0 mm 2 m/S 729 mmHg 57%
    16:00 +18°C° 0 mm 2 m/S 729 mmHg 61%
    17:00 +17°C° 0 mm 2 m/S 729 mmHg 67%
    18:00 +15°C° 0 mm 2 m/S 729 mmHg 73%
    19:00 +14°C° 0 mm 2 m/S 729 mmHg 79%
    20:00 +13°C° 0 mm 2 m/S 729 mmHg 80%
    21:00 +13°C° 0 mm 2 m/S 729 mmHg 81%
    22:00 +13°C° 0 mm 2 m/S 729 mmHg 82%
    23:00 +12°C° 0 mm 2 m/S 729 mmHg 82%

    Morgen, 20 Oktober, Freitag

    Zeit Temperatur Niederschläge Wind Luftdruck Luftfeuchtigkeit
    00:00 +12°C° 0 mm 2 m/S 729 mmHg 82%
    01:00 +12°C° 0 mm 2 m/S 729 mmHg 81%
    02:00 +12°C° 0 mm 2 m/S 729 mmHg 81%
    03:00 +12°C° 0 mm 2 m/S 729 mmHg 80%
    04:00 +12°C° 0 mm 2 m/S 729 mmHg 79%
    05:00 +12°C° 0 mm 2 m/S 729 mmHg 77%
    06:00 +12°C° 0 mm 2 m/S 729 mmHg 76%
    07:00 +12°C° 0 mm 2 m/S 729 mmHg 74%
    08:00 +13°C° 0 mm 2 m/S 730 mmHg 69%
    09:00 +14°C° 0 mm 3 m/S 730 mmHg 65%
    10:00 +16°C° 0 mm 3 m/S 730 mmHg 60%
    11:00 +17°C° 0 mm 3 m/S 731 mmHg 60%
    12:00 +17°C° 0 mm 3 m/S 731 mmHg 60%
    13:00 +18°C° 0 mm 4 m/S 731 mmHg 59%
    14:00 +17°C° 0,2 mm 4 m/S 731 mmHg 66%
    15:00 +16°C° 0,2 mm 3 m/S 730 mmHg 72%
    16:00 +14°C° 0,2 mm 3 m/S 730 mmHg 79%
    17:00 +13°C° 0,1 mm 3 m/S 731 mmHg 83%
    18:00 +13°C° 0,1 mm 3 m/S 731 mmHg 86%
    19:00 +12°C° 0,1 mm 3 m/S 731 mmHg 90%
    20:00 +11°C° 0 mm 3 m/S 731 mmHg 91%
    21:00 +11°C° 0 mm 3 m/S 731 mmHg 93%
    22:00 +10°C° 0 mm 2 m/S 732 mmHg 94%
    23:00 +10°C° 0 mm 2 m/S 732 mmHg 95%

    übermorgen, 21 Oktober, Samstag

    Zeit Temperatur Niederschläge Wind Luftdruck Luftfeuchtigkeit
    00:00 +10°C° 0 mm 2 m/S 732 mmHg 95%
    01:00 +9°C° 0 mm 2 m/S 732 mmHg 95%
    02:00 +9°C° 0 mm 2 m/S 731 mmHg 95%
    03:00 +9°C° 0 mm 2 m/S 731 mmHg 94%
    04:00 +10°C° 0 mm 2 m/S 731 mmHg 94%
    05:00 +10°C° 0 mm 2 m/S 731 mmHg 94%
    06:00 +10°C° 0 mm 2 m/S 731 mmHg 93%
    07:00 +10°C° 0 mm 2 m/S 731 mmHg 93%
    08:00 +12°C° 0 mm 3 m/S 731 mmHg 87%
    09:00 +14°C° 0 mm 4 m/S 731 mmHg 82%
    10:00 +15°C° 0 mm 5 m/S 731 mmHg 76%
    11:00 +16°C° 0 mm 5 m/S 730 mmHg 73%
    12:00 +17°C° 0 mm 5 m/S 730 mmHg 69%
    13:00 +19°C° 0 mm 5 m/S 730 mmHg 66%
    14:00 +18°C° 0,1 mm 4 m/S 730 mmHg 71%
    15:00 +17°C° 0,1 mm 4 m/S 729 mmHg 77%
    16:00 +16°C° 0,1 mm 3 m/S 729 mmHg 82%
    17:00 +14°C° 0,3 mm 3 m/S 729 mmHg 85%
    18:00 +14°C° 0,3 mm 3 m/S 730 mmHg 88%
    19:00 +13°C° 0,3 mm 3 m/S 730 mmHg 91%
    20:00 +13°C° 1 mm 3 m/S 730 mmHg 91%
    21:00 +12°C° 1 mm 3 m/S 730 mmHg 90%
    22:00 +12°C° 1 mm 4 m/S 730 mmHg 90%
    23:00 +12°C° 0,1 mm 4 m/S 731 mmHg 90%

    22 Oktober, Sonntag

    Zeit Temperatur Niederschläge Wind Luftdruck Luftfeuchtigkeit
    00:00 +11°C° 0,1 mm 4 m/S 731 mmHg 90%
    01:00 +10°C° 0,1 mm 4 m/S 731 mmHg 90%
    02:00 +10°C° 0 mm 4 m/S 731 mmHg 90%
    03:00 +10°C° 0 mm 4 m/S 731 mmHg 90%
    04:00 +8°C° 0 mm 4 m/S 731 mmHg 90%
    05:00 +8°C° 0 mm 4 m/S 731 mmHg 90%
    06:00 +7°C° 0 mm 4 m/S 731 mmHg 90%
    07:00 +7°C° 0 mm 4 m/S 731 mmHg 90%
    08:00 +8°C° 0 mm 4 m/S 731 mmHg 86%
    09:00 +8°C° 0 mm 5 m/S 731 mmHg 82%
    10:00 +9°C° 0 mm 6 m/S 731 mmHg 78%
    11:00 +9°C° 0 mm 6 m/S 731 mmHg 75%
    12:00 +9°C° 0 mm 6 m/S 731 mmHg 72%
    13:00 +10°C° 0 mm 6 m/S 731 mmHg 69%
    14:00 +9°C° 0 mm 5 m/S 731 mmHg 70%
    15:00 +9°C° 0 mm 5 m/S 730 mmHg 71%
    16:00 +9°C° 0 mm 5 m/S 730 mmHg 71%
    17:00 +8°C° 0 mm 4 m/S 731 mmHg 74%
    18:00 +7°C° 0 mm 4 m/S 731 mmHg 77%
    19:00 +6°C° 0 mm 4 m/S 731 mmHg 80%
    20:00 +6°C° 0 mm 4 m/S 731 mmHg 82%
    21:00 +6°C° 0 mm 4 m/S 731 mmHg 84%
    22:00 +6°C° 0 mm 4 m/S 731 mmHg 86%
    23:00 +6°C° 0 mm 4 m/S 732 mmHg 86%

    23 Oktober, Montag

    Zeit Temperatur Niederschläge Wind Luftdruck Luftfeuchtigkeit
    00:00 +6°C° 0 mm 4 m/S 732 mmHg 87%
    01:00 +6°C° 0 mm 4 m/S 732 mmHg 87%
    02:00 +6°C° 0 mm 4 m/S 732 mmHg 88%
    03:00 +6°C° 0 mm 4 m/S 732 mmHg 89%
    04:00 +5°C° 0 mm 3 m/S 732 mmHg 91%
    05:00 +5°C° 0 mm 3 m/S 733 mmHg 91%
    06:00 +5°C° 0 mm 3 m/S 733 mmHg 91%
    07:00 +5°C° 0 mm 3 m/S 733 mmHg 91%
    08:00 +7°C° 0 mm 3 m/S 734 mmHg 87%
    09:00 +7°C° 0 mm 4 m/S 734 mmHg 84%
    10:00 +8°C° 0 mm 4 m/S 734 mmHg 80%
    11:00 +8°C° 0,1 mm 4 m/S 735 mmHg 80%
    12:00 +10°C° 0,1 mm 4 m/S 735 mmHg 79%
    13:00 +10°C° 0,1 mm 4 m/S 735 mmHg 79%
    14:00 +10°C° 0,1 mm 4 m/S 735 mmHg 80%
    15:00 +10°C° 0,1 mm 4 m/S 735 mmHg 80%
    16:00 +10°C° 0,1 mm 3 m/S 735 mmHg 81%
    17:00 +9°C° 0 mm 3 m/S 736 mmHg 85%
    18:00 +8°C° 0 mm 3 m/S 736 mmHg 88%
    19:00 +7°C° 0 mm 2 m/S 736 mmHg 91%
    20:00 +7°C° 0,1 mm 2 m/S 736 mmHg 92%
    21:00 +7°C° 0,1 mm 2 m/S 736 mmHg 93%
    22:00 +7°C° 0,1 mm 2 m/S 737 mmHg 94%
    23:00 +7°C° 0,2 mm 2 m/S 737 mmHg 94%

    24 Oktober, Dienstag

    Zeit Temperatur Niederschläge Wind Luftdruck Luftfeuchtigkeit
    00:00 +7°C° 0,2 mm 2 m/S 737 mmHg 94%
    01:00 +8°C° 0,2 mm 2 m/S 737 mmHg 95%
    02:00 +8°C° 0,1 mm 2 m/S 737 mmHg 95%
    03:00 +9°C° 0,1 mm 1 m/S 737 mmHg 95%
    04:00 +9°C° 0,1 mm 1 m/S 737 mmHg 95%
    05:00 +9°C° 0 mm 1 m/S 737 mmHg 95%
    06:00 +9°C° 0 mm 1 m/S 737 mmHg 95%
    07:00 +9°C° 0 mm 1 m/S 737 mmHg 95%
    08:00 +10°C° 0 mm 1 m/S 738 mmHg 92%
    09:00 +11°C° 0 mm 1 m/S 738 mmHg 89%
    10:00 +12°C° 0 mm 1 m/S 738 mmHg 86%
    11:00 +13°C° 0 mm 1 m/S 739 mmHg 83%
    12:00 +14°C° 0 mm 1 m/S 739 mmHg 80%
    13:00 +15°C° 0 mm 1 m/S 739 mmHg 77%
    14:00 +15°C° 0 mm 1 m/S 739 mmHg 79%
    15:00 +14°C° 0 mm 1 m/S 739 mmHg 82%
    16:00 +14°C° 0 mm 1 m/S 739 mmHg 84%
    17:00 +13°C° 0 mm 1 m/S 739 mmHg 86%
    18:00 +13°C° 0 mm 1 m/S 739 mmHg 89%
    19:00 +12°C° 0 mm 1 m/S 739 mmHg 91%
    20:00 +12°C° 0 mm 1 m/S 740 mmHg 92%
    21:00 +10°C° 0 mm 2 m/S 740 mmHg 93%
    22:00 +9°C° 0 mm 2 m/S 740 mmHg 94%
    23:00 +9°C° 0 mm 2 m/S 740 mmHg 95%
    Mehr zeigen